Location: Unnamed
(53.9021°N, 27.5568°E)
Time: 19:28:21
(UTC+03:00)

STARLINK-73 - Pass Details

Date: 23 January 2020
Orbit: 528 x 531 km, 53.0° (Epoch: 25 February)

Event Time Altitude Azimuth Distance (km) Brightness Sun altitude
Exits shadow 05:59:33 19° 148° (SSE) 1,314 5.8 -27.7°
Maximum altitude 05:59:55 19° 140° (SE) 1,306 5.8 -27.7°
Drops below altitude 10° 06:02:47 10° 95° (E) 1,781 7.2 -27.2°
Sets 06:05:28 0° 77° (ENE) 2,675 8.4 -26.8°
